Location: ICStars Ranch
(38.8297°N, 93.7687°W)
Time: 22:30:19
(UTC-06:00)

Daily predictions for brighter satellites

Satellite Brightness Start Highest point End
(mag) Time Altitude Azimuth Time Altitude Azimuth Time Altitude Azimuth
CENTAUR R/B 3.2 18:12:18 10° NNW 18:20:17 84° ENE 18:28:41 10° SE
Cosmos 1782 Rocket 3.7 18:20:28 10° S 18:24:53 88° W 18:29:23 10° N
ATLAS CENTAUR R/B 4.2 18:27:10 10° WNW 18:29:29 14° NW 18:31:44 10° NNW
NOSS 2-2 (E) 4.5 18:28:29 10° SW 18:32:25 49° NW 18:36:59 10° NNE
Meteor 1-18 Rocket 4.3 18:28:12 10° N 18:33:40 57° ENE 18:39:10 10° SSE
Cosmos 44 3.0 18:32:14 10° NNW 18:36:37 59° ENE 18:40:51 10° SE
Cosmos 1633 4.0 18:34:26 10° SE 18:36:57 18° E 18:39:29 10° NE
SJ-6B 3.3 18:34:34 10° SE 18:38:20 38° ENE 18:42:02 10° N
COSMO-SKYMED 1 3.1 18:34:37 10° N 18:38:56 64° WNW 18:43:13 10° SSW
Okean 2 Rocket 3.2 18:36:09 10° S 18:40:37 81° W 18:45:05 10° N
Cosmos 1484 Rocket 4.3 18:37:22 10° S 18:41:10 42° W 18:44:56 10° NNW
Cosmos 1709 Rocket 4.4 18:35:52 10° SSE 18:41:38 40° E 18:47:20 10° NNE
ASTRO E2 4.5 18:39:22 10° WSW 18:42:41 25° S 18:46:01 10° SE
Gbstr 26 Del rocket 4.4 18:43:25 10° SSE 18:45:49 16° SE 18:47:22 13° ESE
SL-16 R/B 2.2 18:40:43 10° NNW 18:46:22 62° ENE 18:51:57 10° SE
Meteor 1-20 Rocket 4.3 18:48:30 10° S 18:54:19 84° E 19:00:12 10° N
Cosmos 1818 3.6 18:53:09 10° SSW 18:58:31 64° ESE 19:03:55 10° NE
Cosmos 1340 3.3 18:55:25 10° NNE 18:58:52 32° ENE 19:02:16 10° SE
Cosmos 2151 Rocket 3.5 18:54:34 10° S 18:59:02 74° E 19:03:33 10° N
Cosmos 1461 2.9 18:57:12 10° NNW 19:01:08 52° ENE 19:04:50 12° SE
Cosmos 1536 4.2 18:59:00 10° SE 19:01:14 19° ESE 19:01:14 19° ESE
Cosmos 2292 Rocket 4.0 18:59:13 10° S 19:03:50 69° E 19:10:07 10° N
Cosmos 2322 Rocket 2.2 18:59:22 10° NNW 19:05:02 90° N 19:10:39 10° SSE
Okean 1 Rocket 3.7 19:04:37 10° SSE 19:08:37 32° E 19:12:37 10° NNE
FREGAT/IRIS 2.8 19:05:50 10° S 19:08:55 76° W 19:12:00 10° NNW
Okean 1 3.2 19:05:20 10° N 19:09:24 83° E 19:13:28 10° S
Helios 1A 4.0 19:11:47 25° ENE 19:12:06 25° ENE 19:15:30 10° NNE
CZ-2D R/B 4.0 19:12:52 28° E 19:13:28 29° ENE 19:16:48 10° N
DELTA 2 R/B (1) 3.6 19:08:40 10° W 19:14:18 86° N 19:17:41 25° E
ATLAS 2A CENTAUR R/B 3.7 19:13:35 10° SSW 19:15:40 15° SSE 19:18:32 11° SE
Cosmos 2322 4.2 19:10:35 10° N 19:15:54 38° ENE 19:18:56 22° ESE
Cosmos 407 Rocket 3.9 19:12:55 10° SSW 19:18:06 67° WNW 19:23:23 10° NNE
Cosmos 676 Rocket 3.9 19:13:49 10° SSW 19:18:59 86° ESE 19:24:13 10° NNE
ALOS 2.1 19:15:01 10° SSE 19:19:40 79° ENE 19:24:21 10° N
FENGYUN 3A 3.6 19:18:48 10° SSE 19:24:12 82° ENE 19:29:39 10° N
Spot 1 4.5 19:24:22 35° ENE 19:24:34 35° ENE 19:28:18 10° N
Okean 1-7 Rocket 4.2 19:20:31 10° NNE 19:24:38 33° ENE 19:24:48 33° E
H-2A R/B 2.7 19:21:59 17° SSE 19:24:39 54° ENE 19:28:18 10° N
COSMOS 2428 3.7 19:22:56 10° N 19:27:38 26° ENE 19:27:55 25° ENE
Meteor 2-4 Rocket 4.0 19:22:37 10° N 19:27:55 42° ENE 19:31:01 22° SE
Cosmos 1238 Rocket 2.0 19:32:24 10° N 19:35:12 73° N 19:35:12 73° N
Meteor 1-11 Rocket 3.7 19:30:25 10° S 19:36:09 78° E 19:42:02 10° NNE
Helios 1B rocket 2.9 19:38:46 42° SE 19:38:46 42° SE 19:41:59 10° S
Cosmos 2237 Rocket 4.3 19:37:34 10° NNE 19:37:59 11° NNE 19:37:59 11° NNE
Cosmos 1025 Rocket 4.4 19:38:52 10° N 19:40:59 24° NNE 19:40:59 24° NNE
SAR-Lupe-4 3.9 19:45:47 54° N 19:45:47 54° N 19:48:40 10° N
Cosmos 1140 Rocket 3.4 19:40:49 10° SSW 19:45:56 89° WNW 19:51:07 10° NNE
Cosmos 2219 3.3 19:45:51 10° S 19:51:21 49° ESE 19:51:31 49° E
Spot 2 Rocket 3.8 19:47:07 10° S 19:52:08 68° WSW 19:57:11 10° NNW
Resurs 01 Rocket 2.2 19:48:04 10° S 19:52:25 58° W 19:56:46 10° NNW
Tiangong 2 2.6 19:52:42 10° WNW 19:54:42 36° W 19:54:42 36° W
Cosmos 2360 Rocket 2.1 19:52:13 10° NNW 19:57:54 87° WSW 20:00:37 32° SSE
Cosmos 614 Rocket 3.8 19:55:28 10° SSW 20:00:33 87° WNW 20:03:36 25° NNE
Cosmos 1850 Rocket 3.9 19:55:18 10° SSW 20:00:33 78° ESE 20:02:31 40° NNE
Cosmos 2219 Rocket 3.7 19:56:52 10° N 19:59:34 22° NNE 19:59:34 22° NNE
SL-08 ROCKET BODY 4.4 19:59:55 10° S 20:06:05 88° WNW 20:12:19 10° N
Cosmos 2327 Rocket 4.3 20:00:11 10° S 20:06:20 78° E 20:12:38 10° N
Envisat 4.1 20:10:22 32° NNE 20:10:22 32° NNE 20:13:15 10° N
BREEZE-M DEB (TANK) 2.9 20:07:03 10° NW 20:09:29 63° NNW 20:09:29 63° NNW
USA 229 DEB 4.1 20:08:16 10° NNW 20:15:01 46° NE 20:15:01 46° NE
USA 229 4.1 20:08:22 10° NNW 20:15:05 45° NE 20:15:05 45° NE
Cosmos 2333 Rocket 3.8 20:18:11 10° N 20:20:34 22° NNE 20:20:34 22° NNE
Cosmos 2184 Rocket 4.1 20:18:44 10° SSW 20:25:03 73° W 20:31:22 10° N
Cosmos 2074 Rocket 4.2 20:19:15 10° SSW 20:25:27 69° W 20:31:43 10° N
Cosmos 2285 Rocket 4.5 20:45:47 10° NNW 20:50:43 55° NNW 20:50:43 55° NNW
COSMOS 2428 4.2 21:06:41 10° NW 21:09:59 32° WNW 21:09:59 32° WNW
